Regional Weather Roundup
Issued by NWS

Home | Current Version | Previous Version | Text Only | Print | Product List | Glossary Off
Versions: 1 2 3 4 5 6 7 8 9 10 11 12 13 14 15 16 17 18 19 20 21 22 23 24 25 26 27 28 29 30 31 32 33 34 35 36 37 38 39 40 41 42 43 44 45 46 47 48 49 50

000
ASUS43 KOAX 101810
RWRNE

WEATHER ROUNDUP FOR NEBRASKA
NATIONAL WEATHER SERVICE OMAHA NE
1200 PM CST SAT DEC 10 2016

NOTES: SATELLITE DATA IS BEING USED TO AUGMENT CLOUD COVER ABOVE
       12000 FEET.
       "FAIR" INDICATES FEW OR NO CLOUDS BELOW 12,000 FEET WITH NO
       SIGNIFICANT WEATHER AND/OR OBSTRUCTIONS TO VISIBILITY.

  * THESE STATIONS DO NOT REPORT WEATHER SUCH AS RAIN...SNOW OR FOG.

NEZ001>004-019>022-054>056-101900-
NEBRASKA PANHANDLE

CITY           SKY/WX    TMP DP  RH WIND       PRES   REMARKS
SCOTTSBLUFF    CLOUDY    21  15  78 E6        29.83F WCI  13
6HR MIN TEMP:  14; 6HR MAX TEMP:  21;

ALLIANCE       CLOUDY    22  17  81 S9        29.83F WCI  12
6HR MIN TEMP:  12; 6HR MAX TEMP:  23;

CHADRON        CLOUDY    11   5  77 CALM      29.88F
6HR MIN TEMP:   4; 6HR MAX TEMP:  12;

KIMBALL        CLOUDY    38  30  74 W6        29.82F WCI  33
SIDNEY         CLOUDY    29  21  72 S13       29.84F WCI  19
6HR MIN TEMP:  16; 6HR MAX TEMP:  29;

$$

NEZ057>060-069>072-079>082-101900-
SOUTHWEST NEBRASKA

CITY           SKY/WX    TMP DP  RH WIND       PRES   REMARKS
NORTH PLATTE   CLOUDY    26  16  65 S12       29.96F WCI  16
6HR MIN TEMP:  18; 6HR MAX TEMP:  26;

IMPERIAL       CLOUDY    24  18  77 SE12      29.92F WCI  13
6HR MIN TEMP:  16; 6HR MAX TEMP:  24;

LEXINGTON      CLOUDY    27  18  67 S12       30.05F WCI  17
MCCOOK         CLOUDY    25  19  78 S8        30.01F WCI  16
6HR MIN TEMP:  15; 6HR MAX TEMP:  25;

OGALLALA       CLOUDY    27  21  77 S10       29.93S WCI  17
$$

NEZ005>010-023>029-035>040-094-101900-
NORTH CENTRAL NEBRASKA

CITY           SKY/WX    TMP DP  RH WIND       PRES   REMARKS
VALENTINE      CLOUDY    13   8  81 NE9       29.97F WCI   1
6HR MIN TEMP:   7; 6HR MAX TEMP:  13; 6HR PCP: TRACE;

AINSWORTH      CLOUDY    21  18  86 SE21      29.94F WCI   6
BROKEN BOW     CLOUDY    26  17  68 S22       30.01F WCI  12
6HR MIN TEMP:  18; 6HR MAX TEMP:  27;

O`NEILL        CLOUDY    24  19  80 SE21      30.07F WCI   9
ORD            CLOUDY    26  16  65 SE17G24   30.06F WCI  13
6HR MIN TEMP:  18; 6HR MAX TEMP:  26;

THEDFORD       CLOUDY    26  20  77 S12G17    29.94F WCI  16
$$

NEZ041-046>049-061>064-073>077-083>087-101900-
SOUTH CENTRAL NEBRASKA

CITY           SKY/WX    TMP DP  RH WIND       PRES   REMARKS
GRAND ISLAND   CLOUDY    28  20  71 SE10G21   30.12F WCI  19
6HR MIN TEMP:  15; 6HR MAX TEMP:  28;

AURORA         CLOUDY    29  19  65 SE14G21   30.12F WCI  19
HASTINGS       CLOUDY    29  16  58 S17       30.11F WCI  17
6HR MIN TEMP:  20; 6HR MAX TEMP:  29;

HEBRON         CLOUDY    32  17  54 SE13      30.17F WCI  22
HOLDREGE       CLOUDY    28  19  67 S13       30.07F WCI  18
KEARNEY *      CLOUDY    28  16  59 S17       30.07F WCI  16
YORK           CLOUDY    28  18  64 S15G21    30.17F WCI  17
$$

NEZ011>018-030>034-042>045-101900-
NORTHEAST NEBRASKA

CITY           SKY/WX    TMP DP  RH WIND       PRES   REMARKS
NORFOLK        CLOUDY    23  17  78 SE16      30.16F WCI  10
6HR MIN TEMP:  17; 6HR MAX TEMP:  23; 6HR PCP:  0.06;

ALBION         CLOUDY    26  18  70 SE12      30.13F WCI  16
BLAIR          CLOUDY    27  19  72 SE9       30.25F WCI  18
FREMONT        CLOUDY    28  20  72 SE12      30.25F WCI  18
TEKAMAH        CLOUDY    24  19  81 SE13      30.28F WCI  12
6HR MIN TEMP:  20; 6HR MAX TEMP:  24; 6HR PCP:  0.05;

WAYNE          CLOUDY    23  19  85 SE13      30.22F WCI  11
$$

NEZ050>053-065>068-078-088>093-101900-
SOUTHEAST NEBRASKA

CITY           SKY/WX    TMP DP  RH WIND       PRES   REMARKS
LINCOLN        CLOUDY    31  15  52 SE17      30.24F WCI  19
6HR MIN TEMP:  23; 6HR MAX TEMP:  31;

OMAHA EPPLEY   CLOUDY    28  18  66 SE15      30.28F WCI  16
6HR MIN TEMP:  22; 6HR MAX TEMP:  28; 6HR PCP:  0.01;

BEATRICE       CLOUDY    32  16  50 SE13      30.22F WCI  23
FALLS CITY     MOSUNNY   33  14  45 S13       30.28F WCI  24
6HR MIN TEMP:  26; 6HR MAX TEMP:  35;

NEBRASKA CITY  CLOUDY    29  12  49 SE9       30.27F WCI  21
PLATTSMOUTH    CLOUDY    29  14  52 SE14      30.26F WCI  19
$$

NEZ044-045-051>053-067-101900-
OMAHA AREA

CITY           SKY/WX    TMP DP  RH WIND       PRES   REMARKS
OMAHA EPPLEY   CLOUDY    28  18  66 SE15      30.28F WCI  16
6HR MIN TEMP:  22; 6HR MAX TEMP:  28; 6HR PCP:  0.01;

BLAIR          CLOUDY    27  19  72 SE9       30.25F WCI  18
FREMONT        CLOUDY    28  20  72 SE12      30.25F WCI  18
MILLARD        CLOUDY    31  18  57 SE15      30.27F WCI  20
OFFUTT AFB     PTSUNNY   29  16  58 SE15      30.27F WCI  18
PLATTSMOUTH    CLOUDY    29  14  52 SE14      30.26F WCI  19
WAHOO          CLOUDY    30  16  56 SE14      30.24F WCI  19
$$



USA.gov is the U.S. government's official web portal to all federal, state and local government web resources and services.